sat.trackr.live / text

‹ back to catalog

XMM-NEWTON

NORAD 25989 · 1999-066A

PAYLOAD ACTIVE UNKNOWN

§ Identity

Operator
Country
ESA
Launch date
1999-12-10
Launch site
FRGUI
Launch vehicle
Mass (kg)
RCS (m²)
10.02

Purposes: science

External: N2YO · Heavens-Above · Gunter

§ Orbital elements

Epoch: 2026-05-25T09:52:50.022048Z

Period
2,872.59 min
Inclination
64.6028°
Eccentricity
0.4679706
Mean motion
0.50128996 rev/d
Perigee alt
29,235.1 km
Apogee alt
91,885.6 km
Semi-major
66,938.5 km
B*
0.0000e+0
RAAN
283.2744°
Arg perigee
65.3215°
Mean anomaly
0.1398°
Rev number
2,288

§ Raw data

XMM-NEWTON1 25989U 99066A   26145.41169007 -.00000050  00000+0  00000+0 0  99932 25989  64.6028 283.2744 4679706  65.3215   0.1398  0.50128996 22883

JSON: /api/v1/satellites/25989 · /tle

For live sub-satellite position, see the globe view (requires WebGL).

§ Visibility from observer

Set your observer location to see the next 7 days of passes ≥ 10°. The values pass through the URL so the page stays shareable.

No JS? Fill the form by hand. The geolocation button needs JavaScript.